Showing default

COSMOS 2329, 23791

Orbit data source: Space-Track

COSMOS 2329, 23791 is a payload satellite owned by VKS (CIS) in LEO that was launched on Mon, 19 Feb 1996 UTC via a TSIKLON-3 launch vehicle from the Plesetsk Missile And Space Complex (PKMTR). Payload-class satellites include a variety of spacecraft equipped with specific instruments for various scientific and technological missions. These include communications satellites like Starlink; space stations such as the ISS; scientific satellites like the Hubble; Earth observation satellites from companies like Planet Labs, Umbra, and HawkEye 360; GPS; miniature CubeSats for education and research; and military/defense satellites.

Loading next visibility...
Identifier
23791, 1996-009E
Orbit
LEO
Country
Flag of CISCIS
Related business
Manufacturer
NPO PM
Mission
Non-operational Defense Communications
Bus & Motor
STRELA-3, Unknown motor
Mass
225 kg wet, 225 kg dry
Launch date (UTC)
1996-02-19 (30 years ago)
Launch vehicle
TSIKLON-3
Launch site
Plesetsk Missile And Space Complex (PKMTR)
Object type
Payload
Rocket body
Debris
Shape & HBR
Cyl + 1 Ant, 3.5 m
Radar Cross Section
1.583 m², Large (>1 m²)

Expand to show TLE details & history
Last TLE update: 21 hours ago

TLE from 21 hours ago
0 COSMOS 2329
1 23791U 96009E   25308.95305277  .00000006  00000-0 -26803-4 0  9992
2 23791  82.5682 108.8987 0008517 208.3594 321.9688 12.61698170368081
Epoch: 2025-11-04T22:52Z
TLE epoch observation values (Epoch: 2025-11-04T22:52:23.759Z)
Latitude
9.59604°
Longitude
-99.8904°
Altitude
1,412.716 km
Speed
7.157 km/s
True Right ascension
19h 10m 33s
True Declination
9° 32' 40"
Sunlit
Object was in daylight at epoch
Visualization orbit readout
Latitude
Unknown
Longitude
Unknown
Altitude
Unknown
Speed
Unknown
Apparent Right ascension
Unknown
Apparent Declination
Unknown
Sunlit
N/A
Visualization observer readout
Local Sidereal Time
15:40:53
Azimuth
Unknown
Elevation
Unknown
Doppler factor
Unknown
Orbital elements
Apogee altitude
1,419.901 km
Perigee altitude
1,406.629 km
Semi-major axis
7,791.402 km
Eccentricity
0.00085
Inclination
82.5682°
RAAN
108.8987°
Arg. of periapsis
208.3594°
True anomaly
321.90862°
Mean anomaly
321.9688°
Eccentric anomaly
321.93872°
Mean motion
3.15587 °/min
Orbital period
114.07 mins
BSTAR
-0.000026803
Loading maneuver chart data...
Computing Atmospheric mass density...
Loading historical data...
Loading historical data...
Loading historical data...
Loading historical data...
Loading historical data...
Loading historical data...
Loading historical data...

Documentation

Showing up to 5 results
|